This is the latest recevied weather packets stored in our database for station/object KJ7HSW. If no packets are shown the sender has not sent any weather packets the latest 10 day(s).
| Time | Temp. | Humidity | Pressure | Rain* | Wind** | Luminosity | Snow |
|---|---|---|---|---|---|---|---|
| 1777194431 | 3.89° C | 81% | 1009.5 hPa | 0 mm | - | 0 W/m² | - |
| 1777194128 | 4.44° C | 79% | 1009.5 hPa | 0 mm | - | 0 W/m² | - |
| 1777193823 | 4.44° C | 79% | 1009.5 hPa | 0 mm | - | 0 W/m² | - |
| 1777193516 | 4.44° C | 79% | 1009.4 hPa | 0 mm | - | 0 W/m² | - |
| 1777193211 | 4.44° C | 78% | 1009.4 hPa | 0 mm | - | 0 W/m² | - |
| 1777192906 | 5° C | 77% | 1009.5 hPa | 0 mm | - | 0 W/m² | - |
| 1777192603 | 5° C | 77% | 1009.5 hPa | 0 mm | - | 0 W/m² | - |
| 1777192300 | 5° C | 77% | 1009.6 hPa | 0 mm | - | 0 W/m² | - |
| 1777191997 | 5° C | 77% | 1009.8 hPa | 0 mm | - | 0 W/m² | - |
| 1777191693 | 5.56° C | 75% | 1009.6 hPa | 0 mm | - | 0 W/m² | - |
| 1777191389 | 5.56° C | 74% | 1009.5 hPa | 0 mm | - | 0 W/m² | - |
| 1777191086 | 5.56° C | 73% | 1009.7 hPa | 0 mm | - | 0 W/m² | - |
| 1777190783 | 5.56° C | 75% | 1009.6 hPa | 0 mm | - | 0 W/m² | - |
| 1777190480 | 5.56° C | 75% | 1009.6 hPa | 0 mm | - | 0 W/m² | - |
| 1777190176 | 5.56° C | 75% | 1009.5 hPa | 0 mm | - | 0 W/m² | - |
| 1777189872 | 5° C | 76% | 1009.3 hPa | 0 mm | - | 0 W/m² | - |
| 1777189569 | 5.56° C | 76% | 1009.4 hPa | 0 mm | - | 0 W/m² | - |
| 1777189263 | 5.56° C | 76% | 1009.4 hPa | 0 mm | - | 0 W/m² | - |
| 1777188958 | 6.11° C | 74% | 1009.3 hPa | 0 mm | - | 0 W/m² | - |
| 1777188655 | 5.56° C | 75% | 1009.4 hPa | 0 mm | - | 0 W/m² | - |
| 1777188345 | 5.56° C | 75% | 1009.5 hPa | 0 mm | - | 0 W/m² | - |
| 1777188040 | 5.56° C | 76% | 1009.4 hPa | 0 mm | - | 0 W/m² | - |
| 1777187736 | 5.56° C | 76% | 1009.5 hPa | 0 mm | - | 0 W/m² | - |
| 1777187432 | 6.11° C | 74% | 1009.6 hPa | 0 mm | - | 0 W/m² | - |
| 1777187127 | 6.11° C | 74% | 1009.5 hPa | 0 mm | - | 0 W/m² | - |
* Rain latest hour (hover to see other rain measurements)
** Current wind speed in m/s (hover to see current wind gust speed)